TimeEDT,TemperatureF,Dew PointF,Humidity,Sea Level PressureIn,VisibilityMPH,Wind Direction,Wind SpeedMPH,Gust SpeedMPH,PrecipitationIn,Events,Conditions,WindDirDegrees,DateUTC
12:15 AM,56.7,50.2,79,29.93,10.0,WNW,3.5,-,N/A,,Overcast,300,2013-09-05 04:15:00
12:35 AM,55.6,49.1,79,29.92,10.0,NW,4.6,-,N/A,,Mostly Cloudy,310,2013-09-05 04:35:00
12:55 AM,54.9,48.4,79,29.92,10.0,Calm,Calm,-,N/A,,Mostly Cloudy,0,2013-09-05 04:55:00
1:15 AM,54.3,48.2,80,29.92,10.0,NNW,3.5,-,N/A,,Mostly Cloudy,330,2013-09-05 05:15:00
1:35 AM,53.1,47.5,81,29.92,10.0,Calm,Calm,-,N/A,,Scattered Clouds,0,2013-09-05 05:35:00
1:55 AM,52.5,46.8,81,29.92,10.0,NNE,4.6,-,N/A,,Clear,20,2013-09-05 05:55:00
2:15 AM,52.3,46.6,81,29.92,10.0,North,4.6,-,N/A,,Clear,10,2013-09-05 06:15:00
2:35 AM,52.7,45.7,77,29.93,10.0,NNE,4.6,-,N/A,,Scattered Clouds,20,2013-09-05 06:35:00
2:55 AM,52.0,45.9,80,29.93,10.0,North,3.5,-,N/A,,Mostly Cloudy,360,2013-09-05 06:55:00
3:15 AM,52.0,45.9,80,29.93,10.0,NNE,3.5,-,N/A,,Mostly Cloudy,20,2013-09-05 07:15:00
3:35 AM,52.2,45.9,79,29.94,10.0,Calm,Calm,-,N/A,,Mostly Cloudy,0,2013-09-05 07:35:00
3:55 AM,52.0,45.3,78,29.94,10.0,Calm,Calm,-,N/A,,Mostly Cloudy,0,2013-09-05 07:55:00
4:15 AM,51.3,45.1,80,29.95,10.0,Calm,Calm,-,N/A,,Mostly Cloudy,0,2013-09-05 08:15:00
4:35 AM,51.1,45.7,82,29.95,10.0,North,3.5,-,N/A,,Mostly Cloudy,350,2013-09-05 08:35:00
4:55 AM,51.3,41.4,69,29.95,10.0,North,6.9,-,N/A,,Mostly Cloudy,10,2013-09-05 08:55:00
5:15 AM,50.9,42.6,73,29.96,10.0,Calm,Calm,-,N/A,,Mostly Cloudy,0,2013-09-05 09:15:00
5:35 AM,50.9,41.4,70,29.97,10.0,NNW,3.5,-,N/A,,Mostly Cloudy,330,2013-09-05 09:35:00
5:55 AM,50.0,44.8,82,29.98,10.0,NW,3.5,-,N/A,,Scattered Clouds,310,2013-09-05 09:55:00
6:15 AM,50.0,45.0,83,29.99,10.0,WNW,4.6,-,N/A,,Scattered Clouds,300,2013-09-05 10:15:00
6:35 AM,49.6,44.6,83,29.99,10.0,NW,5.8,-,N/A,,Scattered Clouds,310,2013-09-05 10:35:00
6:55 AM,49.6,43.0,78,30.00,10.0,WNW,3.5,-,N/A,,Mostly Cloudy,300,2013-09-05 10:55:00
7:15 AM,49.5,43.7,81,30.00,10.0,WNW,3.5,-,N/A,,Overcast,300,2013-09-05 11:15:00
7:35 AM,49.5,43.2,79,30.01,10.0,WNW,4.6,-,N/A,,Mostly Cloudy,300,2013-09-05 11:35:00
7:55 AM,49.6,42.8,77,30.02,10.0,NW,4.6,-,N/A,,Clear,310,2013-09-05 11:55:00
8:15 AM,49.6,43.3,79,30.02,10.0,NW,5.8,-,N/A,,Clear,310,2013-09-05 12:15:00
8:35 AM,52.2,43.2,71,30.02,10.0,NNW,6.9,-,N/A,,Clear,330,2013-09-05 12:35:00
8:55 AM,53.2,41.9,65,30.02,10.0,North,6.9,-,N/A,,Clear,360,2013-09-05 12:55:00
9:15 AM,53.8,41.9,64,30.02,10.0,Calm,Calm,-,N/A,,Clear,0,2013-09-05 13:15:00
9:35 AM,54.9,41.2,60,30.03,10.0,NW,5.8,-,N/A,,Clear,320,2013-09-05 13:35:00
9:55 AM,55.2,40.6,58,30.03,10.0,Calm,Calm,-,N/A,,Scattered Clouds,0,2013-09-05 13:55:00
10:15 AM,55.9,40.6,56,30.03,10.0,North,4.6,-,N/A,,Scattered Clouds,360,2013-09-05 14:15:00
10:35 AM,55.8,37.8,51,30.03,10.0,NW,5.8,-,N/A,,Scattered Clouds,320,2013-09-05 14:35:00
10:55 AM,57.4,37.2,47,30.03,10.0,NW,10.4,-,N/A,,Clear,310,2013-09-05 14:55:00
11:15 AM,57.2,35.8,45,30.03,10.0,North,9.2,16.1,N/A,,Clear,350,2013-09-05 15:15:00
11:35 AM,55.4,36.0,48,30.03,10.0,WNW,9.2,18.4,N/A,,Scattered Clouds,300,2013-09-05 15:35:00
11:55 AM,58.3,34.2,40,30.03,10.0,WNW,13.8,18.4,N/A,,Scattered Clouds,290,2013-09-05 15:55:00
12:15 PM,58.3,34.3,41,30.03,10.0,West,8.1,-,N/A,,Scattered Clouds,270,2013-09-05 16:15:00
12:35 PM,57.2,32.9,40,30.04,10.0,WNW,10.4,16.1,N/A,,Mostly Cloudy,300,2013-09-05 16:35:00
12:55 PM,57.7,34.3,41,30.04,10.0,WNW,13.8,19.6,N/A,,Mostly Cloudy,300,2013-09-05 16:55:00
1:15 PM,55.4,33.6,44,30.05,10.0,WNW,11.5,18.4,N/A,,Overcast,290,2013-09-05 17:15:00
1:35 PM,58.1,36.7,45,30.04,10.0,NW,10.4,18.4,N/A,,Mostly Cloudy,320,2013-09-05 17:35:00
1:55 PM,56.3,35.8,46,30.05,10.0,WNW,8.1,-,N/A,,Mostly Cloudy,300,2013-09-05 17:55:00
2:15 PM,57.9,38.3,48,30.05,10.0,WNW,10.4,17.3,N/A,,Mostly Cloudy,300,2013-09-05 18:15:00
2:35 PM,55.9,36.0,47,30.05,10.0,NW,8.1,-,N/A,,Overcast,310,2013-09-05 18:35:00
2:55 PM,57.2,38.5,50,30.05,10.0,West,9.2,16.1,N/A,,Mostly Cloudy,280,2013-09-05 18:55:00
3:15 PM,58.6,37.9,46,30.05,10.0,West,11.5,18.4,N/A,,Scattered Clouds,260,2013-09-05 19:15:00
3:35 PM,56.5,34.9,44,30.05,10.0,WNW,6.9,16.1,N/A,,Overcast,290,2013-09-05 19:35:00
3:55 PM,57.4,38.3,49,30.05,10.0,WNW,9.2,-,N/A,,Overcast,300,2013-09-05 19:55:00
4:15 PM,56.1,38.1,51,30.06,10.0,WNW,6.9,17.3,N/A,,Mostly Cloudy,300,2013-09-05 20:15:00
4:35 PM,56.7,38.1,50,30.06,10.0,WNW,10.4,-,N/A,,Scattered Clouds,290,2013-09-05 20:35:00
4:55 PM,57.4,34.2,42,30.07,10.0,West,11.5,18.4,N/A,,Clear,280,2013-09-05 20:55:00
5:15 PM,55.4,32.4,42,30.08,10.0,West,11.5,16.1,N/A,,Clear,280,2013-09-05 21:15:00
5:35 PM,55.8,31.6,40,30.08,10.0,WNW,11.5,17.3,N/A,,Clear,300,2013-09-05 21:35:00
5:55 PM,56.1,31.6,39,30.09,10.0,WNW,9.2,-,N/A,,Clear,290,2013-09-05 21:55:00
6:15 PM,55.4,32.4,42,30.10,10.0,West,11.5,16.1,N/A,,Scattered Clouds,280,2013-09-05 22:15:00
6:35 PM,54.5,32.7,44,30.10,10.0,West,8.1,-,N/A,,Scattered Clouds,280,2013-09-05 22:35:00
6:55 PM,53.8,34.2,47,30.11,10.0,West,6.9,-,N/A,,Mostly Cloudy,270,2013-09-05 22:55:00
7:15 PM,52.7,33.3,48,30.11,10.0,West,5.8,-,N/A,,Mostly Cloudy,280,2013-09-05 23:15:00
7:35 PM,50.9,33.8,52,30.12,10.0,West,3.5,-,N/A,,Scattered Clouds,280,2013-09-05 23:35:00
7:55 PM,50.9,34.0,52,30.12,10.0,WNW,3.5,-,N/A,,Clear,290,2013-09-05 23:55:00
8:15 PM,49.8,34.2,55,30.13,10.0,WNW,4.6,-,N/A,,Clear,290,2013-09-06 00:15:00
8:35 PM,49.8,34.3,55,30.14,10.0,WNW,5.8,-,N/A,,Clear,300,2013-09-06 00:35:00
8:55 PM,48.7,35.1,59,30.14,10.0,NW,4.6,-,N/A,,Clear,310,2013-09-06 00:55:00
9:15 PM,48.4,35.2,60,30.14,10.0,Calm,Calm,-,N/A,,Clear,0,2013-09-06 01:15:00
9:35 PM,48.4,35.2,60,30.15,10.0,WSW,3.5,-,N/A,,Clear,240,2013-09-06 01:35:00
9:55 PM,45.5,36.5,71,30.15,10.0,WSW,3.5,-,N/A,,Clear,240,2013-09-06 01:55:00
10:15 PM,46.8,36.1,67,30.16,10.0,West,3.5,-,N/A,,Clear,260,2013-09-06 02:15:00
10:35 PM,48.2,34.9,60,30.16,10.0,West,4.6,-,N/A,,Clear,280,2013-09-06 02:35:00
10:55 PM,42.3,36.9,81,30.16,10.0,WSW,4.6,-,N/A,,Clear,250,2013-09-06 02:55:00
11:15 PM,42.1,37.0,82,30.16,10.0,Calm,Calm,-,N/A,,Clear,0,2013-09-06 03:15:00
11:35 PM,41.5,36.7,83,30.16,10.0,WSW,4.6,-,N/A,,Clear,240,2013-09-06 03:35:00
11:55 PM,40.6,36.5,85,30.16,10.0,West,4.6,-,N/A,,Clear,260,2013-09-06 03:55:00